[[{"header":{"parameterUnit":"m.s-1","parameterCategory":1,"la1":30.2991,"la2":30.254,"lo1":-89.0895,"lo2":-89.0444,"dy":0.0017,"dx":0.0017,"nx":28,"ny":28,"refTime":"2025-04-06T03:00:00:Z","depth":0,"parameterNumber":2,"parameterNumberName":"U-component_of_WINDS"},"data":[0,0,0,0,0,0,0,0,0,0,0,0,0,0,0,0,0,0,0,0,0,0,0,0,0,0,0,0,0,0,0,0,0,0,0,0,0,0,0,0,0,0,0,0,0,0,0,0,0,0,0,0,0,0,0,0,0,0,-1.4408,-1.4409,0,-1.4504,-1.4506,-1.4507,-1.4562,-1.4562,-1.4562,-1.4562,-1.4663,-1.4665,-1.4668,0,0,0,0,0,0,0,0,0,0,0,0,0,-1.4275,-1.4277,-1.4408,-1.441,-1.4411,-1.4504,-1.4506,-1.4507,-1.4562,-1.4562,-1.4562,-1.4562,-1.4662,-1.4665,-1.4668,0,0,0,0,0,0,0,0,0,0,0,0,0,-1.4348,-1.4278,-1.4408,-1.4449,-1.4454,-1.4504,-1.4506,-1.4507,-1.4562,-1.4562,-1.4562,-1.4563,-1.4661,-1.4665,-1.4668,-1.4685,0,0,-1.468,-1.4681,0,0,0,0,0,0,0,0,-1.4344,-1.4353,-1.4442,-1.4447,-1.4452,-1.4521,-1.4495,-1.4567,-1.4562,-1.4521,-1.4562,-1.4563,-1.4616,-1.4623,-1.4641,-1.469,-1.4694,-1.468,-1.4682,-1.4684,-1.4685,0,0,0,0,0,0,0,-1.4339,-1.4349,-1.4446,-1.4443,-1.4449,-1.4464,-1.4474,-1.4509,-1.4565,-1.4524,-1.4529,-1.4539,-1.4618,-1.4637,-1.4643,-1.4696,-1.468,-1.4683,-1.4686,-1.4687,-1.4765,-1.4765,0,0,0,0,0,0,-1.4327,-1.4344,-1.4443,-1.4449,-1.4397,-1.4466,-1.4478,-1.4499,-1.4565,-1.4576,-1.4539,-1.4541,-1.463,-1.4639,-1.4647,-1.4672,-1.4684,-1.4687,-1.4689,-1.4765,-1.4765,-1.4765,0,0,0,0,0,0,-1.4323,-1.4335,-1.444,-1.4398,-1.4412,-1.4468,-1.4491,-1.4501,-1.4519,-1.4576,-1.4587,-1.4547,-1.4631,-1.4642,-1.4675,-1.4676,-1.4689,-1.4692,-1.4765,-1.4765,-1.4765,-1.4721,0,0,0,0,0,0,-1.4319,-1.4333,-1.434,-1.4398,-1.4414,-1.4465,-1.4491,-1.4502,-1.4525,-1.4529,-1.4587,-1.4596,-1.4632,-1.467,-1.4679,-1.4681,-1.4695,-1.4766,-1.4765,-1.4765,-1.4722,-1.4719,-1.4716,0,0,0,0,0,-1.4314,-1.4324,-1.434,-1.4352,-1.4424,-1.4465,-1.4475,-1.4515,-1.4525,-1.4532,-1.4569,-1.4595,-1.4674,-1.4672,-1.4684,-1.4687,-1.4766,-1.4765,-1.4765,-1.4724,-1.472,-1.4716,0,0,0,0,0,0,-1.4266,-1.4332,-1.4351,-1.4379,-1.4416,-1.4475,-1.4485,-1.4509,-1.4545,-1.4547,-1.4596,-1.4609,-1.4637,-1.4666,-1.4663,-1.4707,-1.4723,-1.4725,-1.4688,-1.4684,-1.4681,-1.4674,-1.4698,0,0,0,0,0,-1.4258,-1.4286,-1.4343,-1.4363,-1.438,-1.4429,-1.4449,-1.4476,-1.4517,-1.4533,-1.4572,-1.4611,-1.4645,-1.4666,-1.4701,-1.4727,-1.474,-1.4735,-1.4732,-1.4729,-1.473,-1.4746,-1.4744,-1.4763,-1.4763,-1.4763,0,0,-1.4243,-1.4283,-1.4298,-1.4354,-1.4386,-1.4414,-1.4442,-1.4471,-1.4492,-1.4538,-1.4571,-1.4602,-1.4648,-1.4678,-1.4693,-1.4703,-1.4727,-1.4728,-1.4725,-1.4728,-1.4745,-1.4744,-1.4742,-1.4763,-1.4763,-1.4763,0,0,-1.423,-1.4263,-1.4283,-1.4314,-1.4361,-1.4394,-1.4399,-1.4453,-1.4475,-1.451,-1.4544,-1.4571,-1.4628,-1.466,-1.4684,-1.4683,-1.4708,-1.4693,-1.4676,-1.4692,-1.469,-1.4689,-1.4689,-1.4688,-1.4694,-1.4694,-1.4694,0,-1.4205,-1.4248,-1.429,-1.4317,-1.434,-1.4382,-1.4403,-1.4432,-1.4488,-1.4504,-1.4514,-1.4586,-1.4621,-1.4659,-1.4658,-1.4676,-1.4684,-1.4686,-1.4687,-1.4686,-1.4686,-1.4686,-1.4686,-1.4691,-1.4692,-1.4692,-1.4692,0,-1.4216,-1.4245,-1.4256,-1.4308,-1.4334,-1.4357,-1.4403,-1.4424,-1.4449,-1.4481,-1.4516,-1.4559,-1.4603,-1.4614,-1.4639,-1.4656,-1.466,-1.4677,-1.4694,-1.4681,-1.4682,-1.4683,-1.4688,-1.4689,-1.469,-1.469,0,0,-1.4175,-1.425,-1.4253,-1.4278,-1.4333,-1.4357,-1.4383,-1.4425,-1.4442,-1.4479,-1.4502,-1.455,-1.4567,-1.4593,-1.4623,-1.4636,-1.4633,-1.4653,-1.4654,-1.4647,-1.4654,-1.464,-1.464,-1.465,-1.465,-1.465,-1.465,0,-1.417,-1.4217,-1.4255,-1.4289,-1.4316,-1.4356,-1.4379,-1.4416,-1.4446,-1.4475,-1.4509,-1.4542,-1.4561,-1.4578,-1.4593,-1.463,-1.4635,-1.4631,-1.4673,-1.4674,-1.4659,-1.4641,-1.4626,-1.4624,-1.4651,-1.4651,-1.4651,0,-1.417,-1.4205,-1.4241,-1.4293,-1.4307,-1.4326,-1.4368,-1.4394,-1.4437,-1.4459,-1.4488,-1.4519,-1.4549,-1.4562,-1.4605,-1.4601,-1.462,-1.4641,-1.4642,-1.4648,-1.4661,-1.4646,-1.4624,-1.4624,-1.4652,-1.4652,-1.4652,0,-1.4136,-1.4193,-1.4222,-1.4241,-1.4303,-1.4316,-1.4343,-1.4386,-1.4409,-1.4446,-1.4461,-1.4501,-1.4523,-1.4554,-1.4595,-1.4601,-1.4633,-1.465,-1.4652,-1.4651,-1.4657,-1.4656,-1.4638,-1.4669,-1.4669,-1.4669,-1.4669,0,-1.4127,-1.4147,-1.4207,-1.4225,-1.4249,-1.4293,-1.4316,-1.4346,-1.4384,-1.4409,-1.4447,-1.447,-1.4522,-1.4551,-1.4584,-1.4614,-1.4624,-1.4642,-1.4651,-1.4639,-1.4636,-1.4652,-1.4654,-1.4669,-1.4669,-1.4669,-1.4669,0,-1.4093,-1.4134,-1.4168,-1.4224,-1.4239,-1.4254,-1.4302,-1.4321,-1.4354,-1.4385,-1.4394,-1.4446,-1.4482,-1.4526,-1.4577,-1.4599,-1.4626,-1.4639,-1.4611,-1.4616,-1.4616,-1.4615,-1.4608,-1.4609,-1.4639,-1.4638,-1.4638,0,-1.4084,-1.4101,-1.4158,-1.4177,-1.4202,-1.4232,-1.4255,-1.43,-1.4323,-1.4373,-1.4386,-1.4425,-1.4459,-1.4515,-1.4558,-1.4597,-1.4611,-1.4606,-1.4617,-1.4605,-1.4611,-1.4609,-1.4611,-1.4602,-1.4602,-1.4601,-1.4601,0,-1.4064,-1.4084,-1.4115,-1.4154,-1.418,-1.4213,-1.4248,-1.4262,-1.4313,-1.4337,-1.4374,-1.44,-1.4452,-1.4491,-1.4535,-1.4564,-1.4591,-1.4597,-1.46,-1.4588,-1.4571,-1.458,-1.4603,-1.4597,-1.4597,-1.4598,-1.4598,-1.4598,-1.4043,-1.406,-1.4102,-1.4136,-1.4167,-1.4198,-1.4219,-1.4253,-1.4285,-1.433,-1.4354,-1.4391,-1.4434,-1.4497,-1.4524,-1.4554,-1.4564,-1.4568,-1.4569,-1.4569,-1.4565,-1.4566,-1.4563,-1.4563,-1.4563,-1.4563,-1.4563,0,-1.4025,-1.4054,-1.4085,-1.4132,-1.4159,-1.4181,-1.4221,-1.4242,-1.4273,-1.4311,-1.4343,-1.4386,-1.4423,-1.4469,-1.451,-1.4525,-1.4539,-1.4534,-1.4534,-1.454,-1.4554,-1.4548,-1.4522,-1.4522,-1.4522,-1.4522,-1.4522,-1.4522,-1.4019,-1.4048,-1.4072,-1.4117,-1.4146,-1.4182,-1.4202,-1.4232,-1.4262,-1.4308,-1.4339,-1.4368,-1.4409,-1.4453,-1.4489,-1.4501,-1.4514,-1.4506,-1.4522,-1.4535,-1.4539,-1.4542,-1.4536,-1.4509,-1.4509,-1.4505,-1.4505,-1.4505]},{"header":{"parameterUnit":"m.s-1","parameterCategory":1,"la1":30.2991,"la2":30.254,"lo1":-89.0895,"lo2":-89.0444,"dy":0.0017,"dx":0.0017,"nx":28,"ny":28,"refTime":"2025-04-06T03:00:00:Z","depth":0,"parameterNumber":3,"parameterNumberName":"V-component_of_WINDS"},"data":[0,0,0,0,0,0,0,0,0,0,0,0,0,0,0,0,0,0,0,0,0,0,0,0,0,0,0,0,0,0,0,0,0,0,0,0,0,0,0,0,0,0,0,0,0,0,0,0,0,0,0,0,0,0,0,0,0,0,7.2605,7.2605,0,7.267,7.2671,7.2672,7.2631,7.263,7.2628,7.2626,7.2687,7.269,7.2693,0,0,0,0,0,0,0,0,0,0,0,0,0,7.2439,7.2442,7.2605,7.2606,7.2606,7.267,7.2671,7.2672,7.2632,7.2629,7.2627,7.2625,7.2686,7.269,7.2694,0,0,0,0,0,0,0,0,0,0,0,0,0,7.2508,7.2444,7.2605,7.2594,7.2594,7.267,7.2671,7.2672,7.2632,7.2629,7.2627,7.2624,7.2684,7.2689,7.2694,7.2783,0,0,7.271,7.2712,0,0,0,0,0,0,0,0,7.2505,7.2515,7.2595,7.2595,7.2595,7.264,7.2635,7.2709,7.2633,7.2617,7.2626,7.2623,7.2673,7.2679,7.2697,7.2785,7.2788,7.271,7.2713,7.2716,7.2717,0,0,0,0,0,0,0,7.25,7.2511,7.263,7.2596,7.2596,7.2584,7.2591,7.2649,7.266,7.2619,7.2616,7.2625,7.2672,7.2692,7.2698,7.2789,7.271,7.2715,7.2718,7.272,7.2955,7.2958,0,0,0,0,0,0,7.2497,7.2508,7.2628,7.2632,7.2542,7.259,7.2597,7.2628,7.266,7.2662,7.2627,7.2622,7.2685,7.2692,7.27,7.2808,7.2715,7.272,7.2723,7.2952,7.2956,7.2959,0,0,0,0,0,0,7.2493,7.2508,7.2626,7.257,7.2584,7.2596,7.2631,7.2631,7.2651,7.2666,7.2667,7.2646,7.2683,7.2693,7.2763,7.2809,7.2723,7.2727,7.2948,7.2953,7.2957,7.3022,0,0,0,0,0,0,7.2489,7.2507,7.2542,7.2571,7.2587,7.2689,7.2634,7.2634,7.2661,7.2656,7.2684,7.2686,7.2682,7.2756,7.2769,7.2815,7.2731,7.2944,7.295,7.2956,7.3016,7.3028,7.3039,0,0,0,0,0,7.2483,7.2555,7.2544,7.2558,7.2631,7.2692,7.2701,7.2697,7.2665,7.2699,7.2709,7.2685,7.2802,7.2764,7.2777,7.2825,7.2941,7.2949,7.2955,7.301,7.3026,7.3039,0,0,0,0,0,0,7.2528,7.2559,7.2546,7.263,7.2659,7.2685,7.2728,7.2713,7.275,7.2743,7.2734,7.2741,7.2815,7.2827,7.2784,7.2914,7.2866,7.2877,7.2903,7.2918,7.293,7.2925,7.2735,0,0,0,0,0,7.2548,7.2597,7.262,7.2692,7.2708,7.2716,7.2742,7.2737,7.2766,7.2777,7.2792,7.2819,7.2862,7.289,7.2931,7.3017,7.3023,7.3057,7.3069,7.3078,7.3087,7.3136,7.3151,7.2983,7.2983,7.2983,0,0,7.2589,7.2612,7.2643,7.2702,7.2724,7.2774,7.2726,7.278,7.2817,7.2784,7.2853,7.2865,7.2894,7.2974,7.3009,7.2986,7.3135,7.3087,7.3095,7.3099,7.3145,7.3161,7.3175,7.2988,7.2987,7.2986,0,0,7.269,7.2712,7.2776,7.28,7.2835,7.284,7.2855,7.2885,7.2892,7.2961,7.2939,7.2981,7.3055,7.3078,7.3099,7.3212,7.3192,7.3225,7.3286,7.3333,7.3347,7.3358,7.34,7.3415,7.3234,7.3234,7.3234,0,7.2736,7.2813,7.2809,7.2867,7.2894,7.287,7.2934,7.2956,7.3001,7.302,7.2994,7.3088,7.3106,7.3192,7.322,7.3237,7.3254,7.3222,7.3345,7.3357,7.3368,7.3407,7.3423,7.3238,7.3238,7.3237,7.3237,0,7.2868,7.2922,7.2968,7.3017,7.3049,7.3109,7.3114,7.3146,7.3139,7.3147,7.3218,7.3239,7.3285,7.3304,7.3296,7.3389,7.3374,7.3347,7.3299,7.3388,7.3425,7.344,7.3244,7.3243,7.3241,7.324,0,0,7.2998,7.3047,7.3064,7.3086,7.3124,7.3165,7.3224,7.3271,7.33,7.3332,7.3381,7.3446,7.3422,7.3446,7.344,7.3482,7.3572,7.345,7.345,7.3473,7.3678,7.3699,7.3716,7.3559,7.3562,7.3564,7.3676,0,7.3103,7.3209,7.3209,7.3307,7.3356,7.3335,7.3387,7.3415,7.3425,7.3467,7.3476,7.3523,7.3487,7.3502,7.3542,7.3553,7.3613,7.3544,7.3604,7.3606,7.3599,7.3735,7.3757,7.3862,7.369,7.3692,7.3694,0,7.3238,7.328,7.3383,7.3417,7.3437,7.3484,7.3528,7.3569,7.3601,7.3605,7.3634,7.3622,7.3682,7.3633,7.3714,7.3668,7.3692,7.3701,7.3705,7.3711,7.3656,7.3746,7.3894,7.3911,7.3716,7.3715,7.3713,0,7.3325,7.3405,7.3478,7.3498,7.3538,7.3572,7.359,7.3619,7.3648,7.3686,7.3705,7.3748,7.3772,7.3806,7.3806,7.377,7.3889,7.3839,7.3894,7.3894,7.392,7.3918,7.4076,7.3934,7.3934,7.3934,7.3933,0,7.3442,7.3507,7.3518,7.3563,7.3635,7.3634,7.3704,7.3719,7.3746,7.3792,7.3775,7.3819,7.3816,7.386,7.386,7.3929,7.3939,7.3944,7.3943,7.3946,7.3946,7.3962,7.3955,7.3938,7.3937,7.3936,7.3935,0,7.3551,7.3561,7.364,7.3673,7.3683,7.3734,7.3761,7.3804,7.3812,7.3872,7.3885,7.3898,7.395,7.3954,7.4011,7.4012,7.4096,7.4086,7.4086,7.4085,7.4139,7.4135,7.4313,7.4337,7.4179,7.4181,7.4182,0,7.3625,7.3675,7.3715,7.3747,7.3767,7.3818,7.3848,7.3849,7.3882,7.3923,7.3961,7.4011,7.4051,7.4134,7.4147,7.4192,7.4185,7.4244,7.4191,7.4193,7.4187,7.4185,7.419,7.4255,7.4256,7.4258,7.4259,0,7.3757,7.3761,7.3807,7.3857,7.3895,7.3932,7.3968,7.3994,7.3999,7.4036,7.409,7.4122,7.4183,7.4233,7.4278,7.4294,7.4278,7.4276,7.4291,7.4295,7.4293,7.4296,7.4115,7.4272,7.427,7.4269,7.4269,7.4268,7.3852,7.3896,7.3932,7.3985,7.4013,7.4047,7.4089,7.4105,7.415,7.4203,7.42,7.426,7.4291,7.435,7.437,7.4416,7.4395,7.4417,7.4422,7.4428,7.4435,7.4286,7.4423,7.4423,7.4423,7.4422,7.4422,0,7.3985,7.4007,7.4056,7.4108,7.415,7.4134,7.4172,7.4208,7.4261,7.4293,7.4335,7.4397,7.4446,7.4465,7.4513,7.4546,7.454,7.4559,7.4556,7.4561,7.4449,7.4432,7.4563,7.4563,7.4563,7.4563,7.4563,7.4563,7.4058,7.4133,7.4142,7.423,7.4251,7.4312,7.4336,7.4367,7.4393,7.4465,7.4507,7.452,7.4547,7.4597,7.4641,7.4645,7.4664,7.4686,7.4687,7.4583,7.4568,7.4555,7.4539,7.469,7.469,7.4795,7.4796,7.4797]}]]